sat.trackr.live / text

‹ back to catalog

STARLINK-3726

NORAD 52122 · 2022-029AL

PAYLOAD ACTIVE UNKNOWN

§ Identity

Operator
Country
US
Launch date
2022-03-19
Launch site
AFETR
Launch vehicle
Mass (kg)
RCS (m²)

Purposes: comms

External: N2YO · Heavens-Above · Gunter

§ Orbital elements

Epoch: 2026-09-19T18:04:26.295168Z

Period
93.90 min
Inclination
53.1585°
Eccentricity
0.0000977
Mean motion
15.33546918 rev/d
Perigee alt
464.6 km
Apogee alt
465.9 km
Semi-major
6,843.4 km
B*
3.7750e-5
RAAN
273.4059°
Arg perigee
79.8069°
Mean anomaly
280.3044°
Rev number
25,028

§ Raw data

STARLINK-37261 52122U 22029AL  26262.75308212  .00000869  00000+0  37750-4 0  99912 52122  53.1585 273.4059 0000977  79.8069 280.3044 15.33546918250286

JSON: /api/v1/satellites/52122 · /tle

For live sub-satellite position, see the globe view (requires WebGL).

§ Visibility from observer

Set your observer location to see the next 7 days of passes ≥ 10°. The values pass through the URL so the page stays shareable.

No JS? Fill the form by hand. The geolocation button needs JavaScript.